{"data":{"norad_id":62462,"intl_designator":"2024-254A","name":"STARLINK-11518 [DTC]","alt_names":[],"object_type":"PAYLOAD","status":"ACTIVE","operator":null,"country":"US","launch_date":"2024-12-31","launch_site_code":"AFETR","launch_vehicle":null,"mission":null,"orbit_class":"UNKNOWN","rcs_meters":null,"size_class":null,"mass_kg":null,"dimensions":null,"purposes":["comms"],"wikipedia_slug":null,"has_3d_model":false,"image_url":null,"decayed_at":null,"tle_current":{"epoch":"2026-05-25T05:21:35.444160Z","epoch_age_seconds":49753,"freshness":"FRESH","line1":"1 62462U 24254A   26145.22332690  .00192731  00000+0  14644-2 0  9995","line2":"2 62462  42.9995 122.0530 0001594 257.3403 102.7287 15.70945395 81448","mean_motion":15.70945395,"eccentricity":0.0001594,"inclination_deg":42.9995,"raan_deg":122.053,"arg_perigee_deg":257.3403,"mean_anomaly_deg":102.7287,"bstar":0.0014644,"rev_number":8144,"period_min":91.664548276676,"perigee_km":355.12038743961,"apogee_km":357.26729211133,"semimajor_km":6734.3308397755,"source":"CELESTRAK","updated_at":"2026-05-25T13:38:19.689275Z"}}}